User: anonymous
Location: Bonn
(50.7330°N, 7.1000°E)
Time: 11:26:56
(UTC+02:00)
Language:

Iridium 84 - Orbit

View from above orbital plane
View from above orbital plane
View from above satellite
View from above satellite

Ground track
Ground track

The orbit data is extracted from the following two-line orbital elements,

1 25530U 98066D   14234.08255020 -.00000002  00000-0 -78317-5 0  7476
2 25530 086.3923 060.6147 0002028 113.9038 246.2370 14.34216872829358
Epoch (UTC): 22 August 2014 01:58:52
Eccentricity: 0.0002028
inclination: 86.3923°
perigee height: 776 km
apogee height: 779 km
right ascension of ascending node: 60.6147°
argument of perigee: 113.9038°
revolutions per day: 14.34216872
mean anomaly at epoch: 246.2370°
orbit number at epoch: 82935

The dashed part of the orbit path shows where the satellite is in the earth's shadow,  

DLR